Regional Weather Roundup
Issued by NWS Northern Indiana

Home | Current Version | Previous Version | Graphics & Text | Print | Product List | Glossary On
Versions: 1 2 3 4 5 6 7 8 9 10 11 12 13 14 15 16 17 18 19 20 21 22 23 24 25 26 27 28 29 30 31 32 33 34 35 36 37 38 39 40 41 42 43 44 45 46 47 48 49 50
000
ASUS43 KIWX 170910
RWRIWX

KIWX WEATHER ROUNDUP
NATIONAL WEATHER SERVICE NORTHERN INDIANA
500 AM EDT THU APR 17 2014

NOTE: "FAIR" INDICATES FEW OR NO CLOUDS BELOW 12,000 FEET WITH NO
SIGNIFICANT WEATHER AND/OR OBSTRUCTIONS TO VISIBILITY.

* THESE STATIONS ARE NOT UNDER NWS QUALITY CONTROL. THEY ALSO MAY NOT
  REPORT WEATHER SUCH AS PRECIPITATION OR FOG.

INZ001>027-171000-
NORTHERN INDIANA

CITY           SKY/WX    TMP DP  RH WIND       PRES   REMARKS
GARY*          MOCLDY    43  25  49 SE13G20   30.16F
VALPARAISO     CLOUDY    37  25  61 SE8       30.19S
MICHIGAN CITY* CLOUDY    39  23  52 SE10      30.19F
LAPORTE*       CLOUDY    38  24  58 SE6       30.20F
SOUTH BEND     NOT AVBL
GOSHEN         MOCLDY    36  27  69 SE10      30.24F
MONTICELLO*    PTCLDY    37  27  69 SE6       30.19F
LOGANSPORT*    CLEAR     32  27  80 E9        30.22F WCI  24
ROCHESTER*     PTCLDY    37  28  70 SE9       30.23F
WARSAW*        PTCLDY    34  27  75 SE7       30.24S WCI  28
ANGOLA*        CLEAR     34  25  69 SE9       30.27S WCI  26
FORT WAYNE     PTCLDY    29  23  78 E6        30.27S WCI  23
HUNTINGTON*    FAIR      33  26  75 E5        30.25F WCI  28
PERU/GRISSOM   CLEAR     33  30  89 SE10      30.21F WCI  24
MARION*        CLEAR     34  25  69 SE8       30.24S HAZE    WCI  27

$$
INZ028>050-171000-
CENTRAL INDIANA

CITY           SKY/WX    TMP DP  RH WIND       PRES   REMARKS
LAFAYETTE      PTCLDY    38  25  59 SE7       30.19F
KOKOMO*        CLEAR     32  25  74 SE6       30.23S WCI  26
MUNCIE*        CLEAR     38  23  55 SE8       30.24S
INDIANAPOLIS   PTCLDY    37  23  56 SE8       30.22S

$$
MIZ043>046-050>051-056>058-064>065-071>073-077>080-171000-
SOUTHWEST LOWER MICHIGAN

CITY           SKY/WX    TMP DP  RH WIND       PRES   REMARKS
BATTLE CREEK   CLOUDY    35  26  69 SE9       30.27F WCI  28
BENTON HARBOR  CLOUDY    37  26  64 SE13      30.21F
COLDWATER*     CLOUDY    35  24  63 SE8       30.27F WCI  29
HILLSDALE*     MOCLDY    35  27  72 SE12      30.28S WCI  27
HOLLAND        CLOUDY    38  26  62 SE14      30.23F
GRAND RAPIDS   CLOUDY    36  25  64 E12       30.27F
KALAMAZOO      CLOUDY    37  25  61 SE10      30.25F
STURGIS*       MOCLDY    36  25  64 SE12G17   30.25F
THREE RIVERS*  FAIR      37  26  65 E5        30.26F

$$
OHZ001>008-015>018-024>025-171000-
NORTHWEST OHIO

CITY           SKY/WX    TMP DP  RH WIND       PRES   REMARKS
WAUSEON*       FAIR      32  25  74 E6        30.31S WCI  26
DEFIANCE       CLEAR     32  25  75 E6        30.30S WCI  26
FINDLAY        CLEAR     34  23  64 E6        30.29S WCI  29
TOLEDO EXPRESS CLEAR     32  22  66 E3        30.31S
TOLEDO METCALF CLEAR     33  22  63 E7        30.33S WCI  27
LIMA           CLEAR     35  23  61 SE10      30.27S WCI  27

$$
&&



USA.gov is the U.S. government's official web portal to all federal, state and local government web resources and services.